Weather History for KMCF - April, 2014

Change the Weather History Date:

Saturday, April 12, 2014

  Actual Average Record
Temperature  
Mean Temperature 76 °F -  
Max Temperature 85 °F 78 °F 91 °F (2015)
Min Temperature 66 °F 61 °F 51 °F (1998)
Cooling Degree Days 10    
Growing Degree Days 26 (Base 50)    
Moisture  
Dew Point 63 °F    
Average Humidity 70    
Maximum Humidity 99    
Minimum Humidity 39    
Precipitation  
Precipitation 0.00 in - - ()
Sea Level Pressure  
Sea Level Pressure 30.15 in    
Wind  
Wind Speed 10 mph (East)    
Max Wind Speed 16 mph    
Max Gust Speed 18 mph    
Visibility 10 miles    
Events      
Averages and records for this station are not official NWS values.
T = Trace of Precipitation, MM = Missing Value Source: NWS Daily Summary

Daily Weather History Graph

Daily Weather History Graph

Search for Another Location

Airport or City:

Trip Planner

Search our weather history database for the weather conditions in past years. The results will help you decide how hot, cold, wet, or windy it might be!

Date:

Astronomy

Apr. 12, 2014 Rise Set
Actual Time 7:08 AM EDT 7:53 PM EDT
Civil Twilight 6:44 AM EDT 8:17 PM EDT
Nautical Twilight 6:16 AM EDT 8:45 PM EDT
Astronomical Twilight 5:47 AM EDT 9:14 PM EDT
Moon 5:42 PM EDT (4/12) 5:21 AM EDT (4/12)
Length of Visible Light 13h 33m
Length of Day
12h 45m
Waxing Gibbous, 93% of the Moon is Illuminated
Apr 12
Waxing Gibbous
Apr 15
Full
Apr 22
Last Quarter
Apr 29
New
May 6
First Quarter

Hourly Weather History & Observations

Time (EDT) Temp. Heat Index Dew Point Humidity Pressure Visibility Wind Dir Wind Speed Gust Speed Precip Events Conditions
12:58 AM 67.8 °F - 65.8 °F 93% 30.17 in 10.0 mi East 9.2 mph - N/A   Clear
1:58 AM 67.1 °F - 66.0 °F 96% 30.16 in 10.0 mi East 8.1 mph - N/A   Mostly Cloudy
2:58 AM 67.5 °F - 66.4 °F 96% 30.14 in 10.0 mi ENE 8.1 mph - N/A   Scattered Clouds
3:58 AM 66.7 °F - 66.0 °F 98% 30.14 in 10.0 mi ENE 9.2 mph - N/A   Clear
4:58 AM 66.4 °F - 66.0 °F 99% 30.15 in 10.0 mi ENE 8.1 mph - N/A   Clear
5:58 AM 66.9 °F - 66.4 °F 98% 30.15 in 10.0 mi ENE 9.2 mph - N/A   Clear
6:58 AM 66.4 °F - 65.8 °F 98% 30.17 in 10.0 mi East 10.4 mph - N/A   Clear
7:58 AM 67.3 °F - 66.4 °F 97% 30.19 in 10.0 mi ENE 6.9 mph - N/A   Mostly Cloudy
8:58 AM - - - N/A% - 10.0 mi East 11.5 mph - N/A   Partly Cloudy
9:58 AM - - - N/A% - 10.0 mi East 10.4 mph - N/A   Clear
10:31 AM 77.0 °F - 68.0 °F 74% 30.19 in 10.0 mi East 9.2 mph - N/A   Clear
10:58 AM 78.4 °F - 67.6 °F 69% 30.21 in 10.0 mi ESE 10.4 mph 18.4 mph N/A   Clear
11:58 AM 80.2 °F 83.0 °F 68.2 °F 67% 30.20 in 10.0 mi ENE 10.4 mph - N/A   Partly Cloudy
12:58 PM 82.0 °F 84.3 °F 66.2 °F 59% 30.18 in 10.0 mi East 8.1 mph - N/A   Clear
1:58 PM 83.3 °F 84.8 °F 64.8 °F 53% 30.15 in 10.0 mi East 10.4 mph - N/A   Clear
2:58 PM 84.9 °F 85.4 °F 62.1 °F 46% 30.14 in 10.0 mi East 8.1 mph - N/A   Clear
3:58 PM 85.6 °F 85.4 °F 60.4 °F 42% 30.11 in 10.0 mi East 11.5 mph - N/A   Clear
4:58 PM 84.6 °F 83.7 °F 57.2 °F 39% 30.09 in 10.0 mi East 10.4 mph - N/A   Clear
5:58 PM 84.0 °F 83.3 °F 57.0 °F 40% 30.09 in 10.0 mi East 11.5 mph - N/A   Clear
6:58 PM 82.0 °F 81.8 °F 57.2 °F 43% 30.09 in 10.0 mi East 10.4 mph - N/A   Clear
7:58 PM 77.9 °F - 57.9 °F 50% 30.10 in 10.0 mi East 10.4 mph - N/A   Clear
8:58 PM 75.0 °F - 58.3 °F 56% 30.11 in 10.0 mi East 16.1 mph - N/A   Clear
9:58 PM 73.2 °F - 59.2 °F 61% 30.13 in 10.0 mi East 13.8 mph - N/A   Clear
10:58 PM 71.2 °F - 59.9 °F 67% 30.15 in 10.0 mi East 15.0 mph - N/A   Clear
11:58 PM 69.3 °F - 61.2 °F 75% 30.15 in 10.0 mi East 11.5 mph - N/A   Clear